| time (UTC) | temp F | wind direction | speed knots | gust knots | rain 1hr in | rain 24hr in | rain mn in | humidity % | barometer mb |
| 20260510163049 | 82 | 137 | 2.6 | 0.0 | 0.00 | 0.00 | 0.00 | 71 | 1011.9 |
| 20260510161548 | 82 | 131 | 2.6 | 0.0 | 0.00 | 0.00 | 0.00 | 71 | 1011.9 |
| 20260510160051 | 82 | 131 | 1.7 | 0.0 | 0.00 | 0.00 | 0.00 | 71 | 1011.9 |
| 20260510154546 | 82 | 91 | 1.7 | 0.0 | 0.00 | 0.00 | 0.00 | 70 | 1011.9 |
| 20260510153041 | 81 | 126 | 1.7 | 0.0 | 0.00 | 0.00 | 0.00 | 72 | 1011.8 |
| 20260510151537 | 80 | 120 | 1.7 | 0.0 | 0.00 | 0.00 | 0.00 | 73 | 1011.8 |
| 20260510150041 | 79 | 130 | 1.7 | 0.0 | 0.00 | 0.00 | 0.00 | 74 | 1011.7 |
| 20260510144535 | 79 | 98 | 0.9 | 0.0 | 0.00 | 0.00 | 0.00 | 75 | 1011.7 |
| 20260510143027 | 77 | 130 | 0.9 | 0.0 | 0.00 | 0.00 | 0.00 | 76 | 1011.4 |
| 20260510141529 | 76 | 152 | 1.7 | 0.0 | 0.00 | 0.00 | 0.00 | 78 | 1011.3 |
| 20260510140020 | 74 | 141 | 1.7 | 0.0 | 0.00 | 0.00 | 0.00 | 80 | 1011.2 |
| 20260510134518 | 73 | 145 | 1.7 | 0.0 | 0.00 | 0.00 | 0.00 | 82 | 1011.0 |
| 20260510133017 | 71 | 141 | 0.9 | 0.0 | 0.00 | 0.00 | 0.00 | 85 | 1010.7 |
| 20260510131515 | 70 | 120 | 0.9 | 0.0 | 0.00 | 0.00 | 0.00 | 87 | 1010.5 |
| 20260510130012 | 69 | 135 | 0.0 | 0.0 | 0.00 | 0.00 | 0.00 | 88 | 1010.3 |
| 20260510124511 | 68 | 145 | 0.0 | 0.0 | 0.00 | 0.00 | 0.00 | 89 | 1010.0 |
| 20260510123010 | 67 | 112 | 0.0 | 0.0 | 0.00 | 0.00 | 0.00 | 89 | 1009.9 |
| 20260510121506 | 67 | 128 | 0.0 | 0.0 | 0.00 | 0.00 | 0.00 | 89 | 1009.4 |
| 20260510120005 | 67 | 132 | 0.0 | 0.0 | 0.00 | 0.00 | 0.00 | 88 | 1009.1 |
| 20260510114504 | 67 | 133 | 0.0 | 0.0 | 0.00 | 0.00 | 0.00 | 88 | 1009.1 |
| 20260510113003 | 68 | 279 | 0.0 | 0.0 | 0.00 | 0.00 | 0.00 | 88 | 1009.0 |
| 20260510111600 | 68 | 279 | 0.0 | 0.0 | 0.00 | 0.00 | 0.00 | 86 | 1008.9 |
| 20260510110059 | 69 | 278 | 0.0 | 0.0 | 0.00 | 0.00 | 0.00 | 86 | 1009.0 |
| 20260510104556 | 69 | 259 | 0.0 | 0.0 | 0.00 | 0.00 | 0.00 | 86 | 1008.8 |
| 20260510103100 | 69 | 160 | 0.0 | 0.0 | 0.00 | 0.00 | 0.00 | 86 | 1008.6 |
| 20260510101603 | 70 | 125 | 0.9 | 0.0 | 0.00 | 0.00 | 0.00 | 85 | 1008.5 |
| 20260510100052 | 70 | 202 | 0.9 | 0.0 | 0.00 | 0.00 | 0.00 | 85 | 1008.1 |
| 20260510094552 | 70 | 175 | 0.9 | 0.0 | 0.00 | 0.00 | 0.00 | 84 | 1008.2 |
| 20260510093051 | 70 | 168 | 0.9 | 0.0 | 0.00 | 0.00 | 0.00 | 84 | 1008.2 |
| 20260510091547 | 71 | 174 | 0.9 | 0.0 | 0.00 | 0.00 | 0.00 | 83 | 1008.1 |
| 20260510090050 | 71 | 160 | 0.0 | 0.0 | 0.00 | 0.00 | 0.00 | 82 | 1008.1 |
| 20260510084545 | 71 | 222 | 0.9 | 0.0 | 0.00 | 0.00 | 0.00 | 82 | 1008.1 |
| 20260510083043 | 71 | 174 | 0.9 | 0.0 | 0.00 | 0.00 | 0.00 | 81 | 1008.3 |
| 20260510081553 | 71 | 132 | 0.9 | 0.0 | 0.00 | 0.00 | 0.00 | 81 | 1008.4 |
| 20260510080042 | 71 | 146 | 0.0 | 0.0 | 0.00 | 0.00 | 0.00 | 80 | 1008.5 |
| 20260510074541 | 71 | 228 | 0.0 | 0.0 | 0.00 | 0.00 | 0.00 | 79 | 1008.5 |
| 20260510073038 | 72 | 135 | 0.9 | 0.0 | 0.00 | 0.00 | 0.00 | 78 | 1008.7 |
| 20260510071537 | 72 | 153 | 0.9 | 0.0 | 0.00 | 0.00 | 0.00 | 77 | 1008.5 |
| 20260510070040 | 72 | 141 | 1.7 | 0.0 | 0.00 | 0.00 | 0.00 | 77 | 1008.5 |
| 20260510064536 | 73 | 309 | 0.9 | 0.0 | 0.00 | 0.00 | 0.00 | 76 | 1008.5 |
| 20260510063034 | 73 | 156 | 0.9 | 0.0 | 0.00 | 0.00 | 0.00 | 75 | 1008.5 |
| 20260510061533 | 73 | 150 | 1.7 | 0.0 | 0.00 | 0.00 | 0.00 | 74 | 1008.4 |
| 20260510060034 | 73 | 131 | 0.9 | 0.0 | 0.00 | 0.00 | 0.00 | 75 | 1008.4 |
| 20260510054540 | 73 | 126 | 0.0 | 0.0 | 0.00 | 0.00 | 0.00 | 77 | 1008.5 |
| 20260510053028 | 73 | 149 | 0.9 | 0.0 | 0.00 | 0.00 | 0.00 | 78 | 1008.4 |
| 20260510051533 | 74 | 153 | 0.0 | 0.0 | 0.00 | 0.00 | 0.00 | 80 | 1008.4 |
| 20260510050030 | 74 | 145 | 0.9 | 0.0 | 0.00 | 0.00 | 0.00 | 81 | 1008.4 |
| 20260510044526 | 74 | 134 | 0.0 | 0.0 | 0.00 | 0.00 | 0.00 | 82 | 1008.3 |
| 20260510043025 | 74 | 133 | 0.0 | 0.0 | 0.00 | 0.00 | 0.00 | 82 | 1008.4 |
| 20260510041523 | 74 | 133 | 0.0 | 0.0 | 0.00 | 0.00 | 0.00 | 80 | 1008.2 |
| 20260510040025 | 75 | 133 | 0.0 | 0.0 | 0.00 | 0.00 | 0.00 | 79 | 1008.2 |
| 20260510034522 | 76 | 133 | 0.0 | 0.0 | 0.00 | 0.00 | 0.00 | 78 | 1008.1 |
| 20260510033021 | 77 | 133 | 0.0 | 0.0 | 0.00 | 0.00 | 0.00 | 77 | 1008.1 |
| 20260510031531 | 78 | 133 | 0.0 | 0.0 | 0.00 | 0.00 | 0.00 | 76 | 1007.9 |
| 20260510030023 | 78 | 139 | 0.9 | 0.0 | 0.00 | 0.00 | 0.00 | 75 | 1007.7 |
| 20260510024521 | 78 | 160 | 0.9 | 0.0 | 0.00 | 0.00 | 0.00 | 75 | 1007.5 |
| 20260510023020 | 78 | 167 | 0.9 | 0.0 | 0.00 | 0.00 | 0.00 | 74 | 1007.2 |
| 20260510021528 | 78 | 135 | 0.0 | 0.0 | 0.00 | 0.00 | 0.00 | 72 | 1007.0 |
| 20260510020019 | 79 | 135 | 0.0 | 0.0 | 0.00 | 0.00 | 0.00 | 69 | 1006.6 |
| 20260510014519 | 80 | 135 | 0.0 | 0.0 | 0.00 | 0.00 | 0.00 | 67 | 1006.5 |
| 20260510013019 | 82 | 137 | 0.0 | 0.0 | 0.00 | 0.00 | 0.00 | 65 | 1006.4 |
| 20260510011519 | 82 | 130 | 0.9 | 0.0 | 0.00 | 0.00 | 0.00 | 64 | 1006.4 |
| 20260510010019 | 83 | 144 | 0.9 | 0.0 | 0.00 | 0.00 | 0.00 | 63 | 1006.3 |
| 20260510004517 | 84 | 130 | 1.7 | 0.0 | 0.00 | 0.00 | 0.00 | 62 | 1006.2 |
| 20260510003016 | 85 | 116 | 1.7 | 0.0 | 0.00 | 0.00 | 0.00 | 60 | 1006.0 |
| 20260510001515 | 86 | 135 | 1.7 | 0.0 | 0.00 | 0.00 | 0.00 | 60 | 1005.9 |
| 20260510000020 | 86 | 146 | 0.9 | 0.0 | 0.00 | 0.00 | 0.00 | 58 | 1005.8 |
| 20260509234515 | 87 | 104 | 1.7 | 0.0 | 0.00 | 0.00 | 0.00 | 57 | 1005.6 |
| 20260509233014 | 87 | 144 | 1.7 | 0.0 | 0.00 | 0.00 | 0.00 | 56 | 1005.6 |
| 20260509231513 | 88 | 139 | 1.7 | 0.0 | 0.00 | 0.00 | 0.00 | 54 | 1005.6 |
| 20260509230014 | 88 | 143 | 1.7 | 0.0 | 0.00 | 0.00 | 0.00 | 53 | 1005.6 |
| 20260509224513 | 88 | 165 | 1.7 | 0.0 | 0.00 | 0.00 | 0.00 | 52 | 1005.6 |
| 20260509223018 | 88 | 147 | 1.7 | 0.0 | 0.00 | 0.00 | 0.00 | 50 | 1005.7 |
| 20260509221512 | 89 | 128 | 1.7 | 0.0 | 0.00 | 0.00 | 0.00 | 49 | 1005.6 |
| 20260509220012 | 89 | 122 | 1.7 | 0.0 | 0.00 | 0.00 | 0.00 | 50 | 1005.6 |
| 20260509214509 | 89 | 122 | 1.7 | 0.0 | 0.00 | 0.00 | 0.00 | 52 | 1005.7 |
| 20260509213008 | 90 | 53 | 0.9 | 0.0 | 0.00 | 0.00 | 0.00 | 52 | 1005.8 |
| 20260509211514 | 89 | 86 | 1.7 | 0.0 | 0.00 | 0.00 | 0.00 | 55 | 1006.1 |
| 20260509210002 | 90 | 97 | 0.9 | 0.0 | 0.00 | 0.00 | 0.00 | 55 | 1006.3 |
| 20260509204601 | 89 | 139 | 1.7 | 0.0 | 0.00 | 0.00 | 0.00 | 51 | 1006.5 |
| 20260509203056 | 87 | 137 | 1.7 | 0.0 | 0.00 | 0.00 | 0.00 | 46 | 1006.6 |
| 20260509201552 | 85 | 96 | 1.7 | 0.0 | 0.00 | 0.00 | 0.00 | 50 | 1007.0 |
| 20260509200058 | 86 | 136 | 2.6 | 0.0 | 0.00 | 0.00 | 0.00 | 50 | 1007.5 |
| 20260509194549 | 87 | 85 | 0.9 | 0.0 | 0.00 | 0.00 | 0.00 | 62 | 1007.3 |
| 20260509193049 | 87 | 47 | 1.7 | 0.0 | 0.00 | 0.00 | 0.00 | 61 | 1007.1 |
| 20260509191548 | 87 | 347 | 0.9 | 0.0 | 0.00 | 0.00 | 0.00 | 61 | 1007.1 |
| 20260509190049 | 87 | 62 | 1.7 | 0.0 | 0.00 | 0.00 | 0.00 | 61 | 1007.3 |
| 20260509184545 | 87 | 359 | 0.9 | 0.0 | 0.00 | 0.00 | 0.00 | 62 | 1007.6 |
| 20260509183045 | 87 | 14 | 0.9 | 0.0 | 0.00 | 0.00 | 0.00 | 62 | 1007.8 |
| 20260509181543 | 87 | 2 | 0.9 | 0.0 | 0.00 | 0.00 | 0.00 | 61 | 1008.1 |
| 20260509180041 | 86 | 258 | 1.7 | 0.0 | 0.00 | 0.00 | 0.00 | 66 | 1008.4 |
| 20260509174539 | 84 | 276 | 0.9 | 0.0 | 0.00 | 0.00 | 0.00 | 70 | 1008.4 |
| 20260509173103 | 84 | 295 | 0.9 | 0.0 | 0.00 | 0.00 | 0.00 | 69 | 1008.5 |
| 20260509171541 | 85 | 251 | 0.9 | 0.0 | 0.00 | 0.00 | 0.00 | 69 | 1009.0 |
| 20260509170038 | 85 | 229 | 0.9 | 0.0 | 0.00 | 0.00 | 0.00 | 68 | 1009.1 |
| 20260509164532 | 84 | 309 | 0.9 | 0.0 | 0.00 | 0.00 | 0.00 | 71 | 1008.9 |